Location: ?????????
(38.4921°N, 22.9787°E)
Time: 03:23:22
(UTC+00:00)

Cosmos 489 Rocket - Pass Details

Date: 08 December 2025
Orbit: 952 x 981 km, 74.0° (Epoch: 21 January)

Event Time Altitude Azimuth Distance (km) Brightness Sun altitude
Rises 03:18:24 0° 194° (SSW) 3,660 7.5 -25.6°
Reaches altitude 10° 03:20:56 10° 194° (SSW) 2,713 6.8 -25.1°
Maximum altitude 03:27:14 84° 106° (ESE) 981 4.5 -23.9°
Drops below altitude 10° 03:33:31 10° 20° (NNE) 2,710 6.9 -22.7°
Sets 03:36:03 0° 20° (NNE) 3,656 7.6 -22.2°
